SCP
0 0 0 0 0 0 0 0 0 0 0 0 0 0 0 0 0 0 0 0 0 0 0 0 0 0 0 0 0 0 0 0 0 0 0 0 0 0 0 0 0 0 0 0
0 0 0 0 0 0 0 0 0 0 0 0 0 0 0 0 0 0 0 0 0 0 0 0 0 0 0 0 0 0 0 0 0 0 0 0 0 0 0 0 0 0 0 0
0 0 0 0 0 0 0 0 0 0 0 0 0 0 0 0 0 0 0 0 0 0 0 0 0 0 0 0 0 0 0 0 0 0 0 0 0 0 0 0 0 0 0 0
0 0 0 0 0 0 0 0 0 0 0 0 0 0 0 0 0 0 0 0 0 0 0 0 0 0 0 0 0 0 0 0 0 0 0 0 0 0 0 0 0 0 0 0
0 0 0 0 0 0 0 0 0 0 0 0 0 0 0 0 0 0 0 0 0 0 0 0 0 0 0 0 0 0 0 0 0 0 0 0 0 0 0 0 0 0 0 0
0 0 0 0 0 0 0 0 0 0 0 0 0 0 0 0 0 0 0 0 0 0 0 0 0 0 0 0 0 0 0 0 0 0 0 0 0 0 0 0 0 0 0 0
0 0 0 0 0 0 0 0 0 0 0 0 0 0 0 0 0 0 0 0 0 0 0 0 0 0 0 0 0 0 0 0 0 0 0 0 0 0 0 0 0 0 0 0
0 0 0 0 0 0 0 0 0 0 0 0 0 0 0 0 0 0 0 0 0 0 0 0 0 0 0 0 0 0 0 0 0 0 0 0 0 0 0 0 0 0 0 0
0 0 0 0 0 0 0 0 0 0 0 0 0 0 0 0 0 0 0 0 0 0 0 0 0 0 0 0 0 0 0 0 0 0 0 0 0 0 0 0 0 0 0 0
0 0 0 0 0 0 0 0 0 0 0 0 0 0 0 0 0 0 0 0 0 0 0 0 0 0 0 0 0 0 0 0 0 0 0 0 0 0 0 0 0 0 0 0
0 0 0 0 0 0 0 0 0 0 0 0 0 0 0 0 0 0 0 0 0 0 0 0 0 0 0 0 0 0 0 0 0 0 0 0 0 0 0 0 0 0 0 0
0 0 0 0 0 0 0 0 0 0 0 0 0 0 0 0 0 0 0 0 0 0 0 0 0 0 0 0 0 0 0 0 0 0 0 0 0 0 0 0 0 0 0 0
0 0 0 0 0 0 0 0 0 0 0 0 0 0 0 0 0 0 0 0 0 0 0 0 0 0 0 0 0 0 0 0 0 0 0 0 0 0 0 0 0 0 0 0
0 0 0 0 0 0 0 0 0 0 0 0 0 0 0 0 0 0 0 0 0 0 0 0 0 0 0 0 0 0 0 0 0 0 0 0 0 0 0 0 0 0 0 0
0 0 0 0 0 0 0 0 0 0 0 0 0 0 0 0 0 0 0 0 0 0 0 0 0 0 0 0 0 0 0 0 0 0 0 0 0 0 0 0 0 0 0 0
0 0 0 0 0 0 0 0 0 0 0 0 0 0 0 0 0 0 0 0 0 0 0 0 0 0 0 0 0 0 0 0 0 0 0 0 0 0 0 0 0 0 0 0
0 0 0 0 0 0 0 0 0 0 0 0 0 0 0 0 0 0 0 0 0 0 0 0 0 0 0 0 0 0 0 0 0 0 0 0 0 0 0 0 0 0 0 0
0 0 0 0 0 0 0 0 0 0 0 0 0 0 0 0 0 0 0 0 0 0 0 0 0 0 0 0 0 0 0 0 0 0 0 0 0 0 0 0 0 0 0 0
0 0 0 0 0 0 0 0 0 0 0 0 0 0 0 0 0 0 0 0 0 0 0 0 0 0 0 0 0 0 0 0 0 0 0 0 0 0 0 0 0 0 0 0
0 0 0 0 0 0 0 0 0 0 0 0 0 0 0 0 0 0 0 0 0 0 0 0 0 0 0 0 0 0 0 0 0 0 0 0 0 0 0 0 0 0 0 0
0 0 0 0 0 0 0 0 0 0 0 0 0 0 0 0 0 0 0 0 0 0 0 0 0 0 0 0 0 0 0 0 0 0 0 0 0 0 0 0 0 0 0 0
0 0 0 0 0 0 0 0 0 0 0 0 0 0 0 0 0 0 0 0 0 0 0 0 0 0 0 0 0 0 0 0 0 0 0 0 0 0 0 0 0 0 0 0
0 0 0 0 0 0 0 0 0 0 0 0 0 0 0 0 0 0 0 0 0 0 0 0 0 0 0 0 0 0 0 0 0 0 0 0 0 0 0 0 0 0 0 0
0 0 0 0 0 0 0 0 0 0 0 0 0 0 0 0 0 0 0 0 0 0 0 0 0 0 0 0 0 0 0 0 0 0 0 0 0 0 0 0 0 0 0 0
0 0 0 0 0 0 0 0 0 0 0 0 0 0 0 0 0 0 0 0 0 0 0 0 0 0 0 0 0 0 0 0 0 0 0 0 0 0 0 0 0 0 0 0
0 0 0 0 0 0 0 -0 0 0 0 0 0 0 0 0 0 0 0 0 0 0 0 0 0 0 0 0 0 0 0 0 0 0 0 0 0 0 0 0 0 0 0 0
Wind_Speed_500mb
8 16 27 40 37 15 5 10 15 7 5 9 24 26 22 18 14 16 14 12 11 12 17 20 23 26 31 34 38 44 43 44 39 37 31 28 25 20 13 4 2 1 6 5
10 30 34 1 19 19 16 20 27 12 7 9 20 29 20 20 15 16 19 19 19 22 27 31 34 36 37 39 40 41 39 39 34 31 28 25 21 22 22 21 15 9 2 3
31 7 19 20 15 21 27 30 23 20 5 9 11 28 26 8 11 15 18 21 22 25 34 40 44 47 49 48 48 47 47 45 45 43 42 40 38 34 30 26 22 18 14 9
21 11 16 22 26 25 33 26 21 16 9 19 6 13 9 16 18 23 28 30 31 32 35 40 45 50 51 49 47 46 46 43 43 39 36 32 31 32 31 26 23 19 17 14
12 19 23 24 18 25 11 10 19 14 21 11 17 12 8 12 24 26 41 42 41 41 45 47 49 50 47 43 40 38 36 35 34 34 32 30 29 29 28 24 18 14 11 10
13 1 11 12 6 13 27 14 10 6 5 17 30 26 16 15 20 35 47 48 46 43 45 47 48 46 43 41 37 34 30 31 31 29 28 23 22 24 22 19 13 12 10 9
15 19 8 10 10 5 13 20 8 11 12 15 6 19 24 16 16 30 55 63 56 51 51 52 50 47 42 38 35 31 28 28 28 24 23 21 20 22 19 15 12 10 9 8
22 16 32 28 36 23 37 36 12 14 12 6 3 16 10 2 16 9 47 57 56 53 56 55 51 46 41 37 32 29 27 26 25 23 21 22 19 17 13 12 11 8 8 10
18 16 8 14 9 27 19 22 9 9 1 4 11 10 9 11 12 18 40 54 57 58 62 62 57 52 45 39 34 30 27 25 26 25 23 21 19 14 10 9 6 5 7 9
11 12 5 8 9 3 13 26 11 11 10 12 10 12 16 22 30 26 39 60 62 63 67 63 61 55 47 42 39 36 34 30 30 30 25 21 16 12 8 3 3 5 9 13
9 9 7 10 26 36 12 15 11 7 8 8 7 11 14 26 37 40 49 63 70 68 70 72 67 58 49 47 44 41 40 38 34 31 27 21 17 13 9 4 2 7 11 16
22 5 12 27 0 6 25 18 28 15 14 10 5 12 8 9 20 40 44 55 63 67 75 77 72 66 59 54 50 48 45 41 38 34 31 26 21 16 10 7 6 10 16 21
29 11 6 6 11 7 18 25 30 22 3 21 15 11 4 5 15 30 38 49 60 69 73 76 74 73 64 58 56 51 47 45 42 41 36 32 25 18 16 15 14 16 19 24
50 16 31 36 16 24 24 34 29 28 18 21 35 17 15 19 22 28 35 45 59 74 74 74 74 76 67 60 55 53 50 49 48 45 42 36 29 25 23 24 23 23 24 28
27 27 45 55 25 23 26 42 44 45 59 30 43 37 29 33 31 44 51 46 49 57 64 76 81 80 72 62 57 55 54 54 52 50 47 39 33 32 33 33 33 32 32 35
9 22 37 48 27 21 12 30 54 58 56 48 28 29 21 36 23 29 40 46 53 64 74 82 85 77 69 62 56 58 61 59 56 55 50 43 41 40 40 42 41 41 40 41
13 19 11 38 24 2 12 51 37 39 44 47 40 34 11 13 26 42 44 51 64 70 76 75 75 66 54 50 51 55 61 59 57 55 51 49 47 48 49 50 50 49 46 45
12 9 10 5 8 17 7 3 29 36 27 21 0 8 24 21 36 33 37 51 50 51 51 59 58 46 41 41 44 47 54 55 54 53 53 51 54 55 58 59 57 56 51 48
5 8 8 9 11 11 4 10 16 29 29 21 24 10 11 16 16 11 33 35 35 36 34 37 50 35 36 37 37 40 47 50 49 52 53 53 54 58 61 62 60 59 55 51
4 8 12 8 11 19 6 6 8 6 8 15 27 18 19 25 10 11 35 32 31 32 32 34 35 34 32 31 32 38 43 47 49 49 46 46 48 50 56 61 61 59 55 52
11 6 24 12 12 8 6 13 16 15 8 12 35 38 42 13 15 12 37 39 36 32 29 29 29 30 28 30 32 36 42 48 45 43 45 47 48 47 52 58 59 56 54 54
21 19 10 7 11 18 22 13 16 7 10 27 36 44 49 30 27 38 45 43 37 32 29 28 31 31 32 32 34 40 47 45 45 47 50 53 56 56 57 56 55 55 55 56
9 8 8 11 3 5 39 6 17 27 37 31 37 39 39 42 48 48 44 34 27 22 18 20 28 31 30 36 40 46 47 50 52 55 58 59 59 59 58 56 56 56 58 60
8 6 4 6 2 4 30 13 30 22 27 33 31 33 38 41 44 42 32 28 26 26 27 33 41 36 36 42 47 49 53 57 60 62 62 61 60 59 57 57 58 58 59 61
2 13 10 2 2 5 21 34 37 33 30 33 32 30 35 38 44 39 35 34 29 26 38 48 48 42 45 48 54 55 55 56 58 58 57 57 57 56 57 58 58 59 60 62
13 11 8 6 23 17 21 51 55 46 40 32 29 29 27 29 34 37 38 39 33 34 38 46 58 51 49 55 55 54 54 54 52 51 51 53 54 55 56 59 61 62 64 64
Wind_Direction_500mb
162 208 217 214 214 234 207 217 234 212 171 232 241 251 201 188 187 194 183 166 140 130 131 133 136 131 126 121 120 120 121 122 127 132 138 144 150 145 134 134 108 325 281 307
168 228 231 250 205 205 227 241 245 270 209 234 255 252 243 199 209 198 181 165 155 138 129 127 130 133 133 133 132 130 131 133 139 142 145 148 140 131 120 114 109 118 91 313
214 186 205 183 171 202 230 231 234 253 156 231 275 261 229 199 192 176 175 167 157 149 140 132 128 128 126 125 125 125 126 127 127 124 121 119 120 120 119 117 115 110 109 97
241 190 154 188 211 202 241 218 233 228 237 260 218 281 213 190 188 192 181 177 171 163 151 139 132 128 127 125 124 124 122 122 121 120 123 127 129 131 125 118 108 97 85 78
203 177 194 206 205 189 253 149 210 220 236 265 206 258 204 173 210 198 190 185 180 173 162 152 143 137 131 128 127 127 128 128 129 133 136 136 134 126 118 108 102 89 78 60
261 137 198 205 102 188 135 103 84 107 197 250 226 218 201 200 211 182 188 188 185 179 169 161 152 144 139 138 135 134 133 132 132 136 136 134 125 121 121 111 106 99 80 53
212 216 179 166 140 110 176 159 198 218 206 247 154 213 254 219 180 188 183 185 184 181 177 170 161 154 150 147 145 143 146 147 146 150 145 135 129 121 123 119 112 93 72 50
201 234 188 189 214 190 195 186 192 215 203 185 130 227 236 355 144 139 187 183 178 182 183 179 171 165 162 157 157 158 159 163 159 157 156 144 143 145 140 132 114 93 61 20
195 241 190 193 143 170 185 213 187 106 317 248 207 241 229 166 171 157 172 180 184 187 187 185 180 177 173 170 171 169 174 177 172 170 168 164 161 160 153 139 111 60 13 355
201 250 228 146 130 229 205 152 177 223 214 228 215 248 227 203 198 184 184 188 188 190 191 190 189 186 181 180 181 182 184 189 185 181 179 178 176 172 163 144 64 16 2 343
140 237 143 147 206 190 162 188 210 209 212 224 251 231 211 196 192 187 194 194 189 191 193 193 193 192 190 191 193 193 194 193 193 193 192 192 197 197 206 214 322 337 338 337
193 174 187 204 77 279 239 217 190 203 192 238 301 255 150 170 179 189 191 195 193 193 194 198 198 196 196 199 201 202 200 199 202 203 203 203 207 213 223 252 292 317 328 329
175 199 185 232 223 191 219 208 218 237 64 206 196 234 159 165 206 194 184 192 192 195 196 200 203 204 202 206 206 208 207 207 210 211 210 213 216 227 240 256 275 294 309 317
166 175 214 224 226 158 209 209 205 203 228 212 230 237 190 196 206 188 189 192 194 197 198 202 206 209 209 212 215 214 214 215 217 216 217 220 226 237 248 259 269 279 295 306
183 220 219 238 257 203 207 200 195 209 221 211 244 230 197 194 196 198 195 190 188 196 200 207 212 213 214 217 221 221 222 223 222 221 223 227 233 243 253 262 268 276 286 295
189 229 227 247 221 225 239 217 204 210 219 233 238 242 200 195 185 189 193 188 194 201 206 212 217 218 219 225 231 230 227 227 225 226 227 230 239 249 258 264 270 277 281 285
174 211 183 238 231 184 273 227 215 215 220 220 221 229 145 171 194 202 197 197 203 206 211 213 217 220 221 234 237 234 232 228 228 229 229 235 245 254 261 266 270 272 272 276
171 170 198 120 146 219 286 355 209 214 207 203 137 165 174 186 198 206 203 198 205 211 216 220 210 208 216 221 227 231 230 227 228 230 232 239 249 258 265 268 269 266 267 273
297 177 158 181 208 330 279 219 177 187 224 196 214 145 126 142 157 201 196 199 208 213 216 217 210 213 214 223 229 231 220 219 225 232 237 245 256 263 267 267 266 263 266 274
226 284 221 155 204 218 196 180 178 132 256 201 186 149 152 148 179 203 190 189 184 179 179 187 199 210 218 226 227 224 219 222 230 240 246 255 261 265 267 266 264 264 270 278
167 209 224 199 222 258 221 158 158 157 230 156 177 175 164 190 207 194 178 177 174 177 188 202 213 220 222 218 221 224 228 233 239 243 250 250 256 264 269 267 265 267 273 279
180 173 192 170 217 247 153 117 176 146 138 166 182 194 188 190 165 159 162 169 178 187 194 206 212 209 210 212 220 228 232 239 246 251 254 256 258 259 263 265 266 269 274 279
212 183 174 211 215 8 170 112 178 162 160 176 174 182 185 169 167 170 174 180 189 198 204 224 231 213 217 223 231 238 248 252 255 258 260 260 259 259 264 266 268 272 276 279
233 181 148 177 149 102 193 191 185 179 186 177 174 177 182 189 188 185 185 190 202 212 223 235 221 223 227 232 241 249 257 260 263 262 260 259 257 259 264 266 267 269 272 279
74 149 138 81 196 118 213 210 191 194 183 177 181 189 200 202 200 199 200 212 219 229 232 231 224 234 237 237 243 250 256 259 260 260 258 255 254 259 262 265 268 270 271 274
180 157 180 198 191 172 204 214 208 209 201 192 199 202 205 211 218 229 228 229 242 240 233 231 229 236 242 242 244 252 255 256 256 255 254 255 258 261 262 265 268 269 272 274
Wind_Speed_850mb
8 16 27 40 37 15 5 10 15 7 5 9 24 26 22 18 14 16 14 12 11 12 17 20 23 26 31 34 38 44 43 44 39 37 31 28 25 20 13 4 2 1 6 5
10 30 34 1 19 19 16 20 27 12 7 9 20 29 20 20 15 16 19 19 19 22 27 31 34 36 37 39 40 41 39 39 34 31 28 25 21 22 22 21 15 9 2 3
31 7 19 20 15 21 27 30 23 20 5 9 11 28 26 8 11 15 18 21 22 25 34 40 44 47 49 48 48 47 47 45 45 43 42 40 38 34 30 26 22 18 14 9
21 11 16 22 26 25 33 26 21 16 9 19 6 13 9 16 18 23 28 30 31 32 35 40 45 50 51 49 47 46 46 43 43 39 36 32 31 32 31 26 23 19 17 14
12 19 23 24 18 25 11 10 19 14 21 11 17 12 8 12 24 26 41 42 41 41 45 47 49 50 47 43 40 38 36 35 34 34 32 30 29 29 28 24 18 14 11 10
13 1 11 12 6 13 27 14 10 6 5 17 30 26 16 15 20 35 47 48 46 43 45 47 48 46 43 41 37 34 30 31 31 29 28 23 22 24 22 19 13 12 10 9
15 19 8 10 10 5 13 20 8 11 12 15 6 19 24 16 16 30 55 63 56 51 51 52 50 47 42 38 35 31 28 28 28 24 23 21 20 22 19 15 12 10 9 8
22 16 32 28 36 23 37 36 12 14 12 6 3 16 10 2 16 9 47 57 56 53 56 55 51 46 41 37 32 29 27 26 25 23 21 22 19 17 13 12 11 8 8 10
18 16 8 14 9 27 19 22 9 9 1 4 11 10 9 11 12 18 40 54 57 58 62 62 57 52 45 39 34 30 27 25 26 25 23 21 19 14 10 9 6 5 7 9
11 12 5 8 9 3 13 26 11 11 10 12 10 12 16 22 30 26 39 60 62 63 67 63 61 55 47 42 39 36 34 30 30 30 25 21 16 12 8 3 3 5 9 13
9 9 7 10 26 36 12 15 11 7 8 8 7 11 14 26 37 40 49 63 70 68 70 72 67 58 49 47 44 41 40 38 34 31 27 21 17 13 9 4 2 7 11 16
22 5 12 27 0 6 25 18 28 15 14 10 5 12 8 9 20 40 44 55 63 67 75 77 72 66 59 54 50 48 45 41 38 34 31 26 21 16 10 7 6 10 16 21
29 11 6 6 11 7 18 25 30 22 3 21 15 11 4 5 15 30 38 49 60 69 73 76 74 73 64 58 56 51 47 45 42 41 36 32 25 18 16 15 14 16 19 24
50 16 31 36 16 24 24 34 29 28 18 21 35 17 15 19 22 28 35 45 59 74 74 74 74 76 67 60 55 53 50 49 48 45 42 36 29 25 23 24 23 23 24 28
27 27 45 55 25 23 26 42 44 45 59 30 43 37 29 33 31 44 51 46 49 57 64 76 81 80 72 62 57 55 54 54 52 50 47 39 33 32 33 33 33 32 32 35
9 22 37 48 27 21 12 30 54 58 56 48 28 29 21 36 23 29 40 46 53 64 74 82 85 77 69 62 56 58 61 59 56 55 50 43 41 40 40 42 41 41 40 41
13 19 11 38 24 2 12 51 37 39 44 47 40 34 11 13 26 42 44 51 64 70 76 75 75 66 54 50 51 55 61 59 57 55 51 49 47 48 49 50 50 49 46 45
12 9 10 5 8 17 7 3 29 36 27 21 0 8 24 21 36 33 37 51 50 51 51 59 58 46 41 41 44 47 54 55 54 53 53 51 54 55 58 59 57 56 51 48
5 8 8 9 11 11 4 10 16 29 29 21 24 10 11 16 16 11 33 35 35 36 34 37 50 35 36 37 37 40 47 50 49 52 53 53 54 58 61 62 60 59 55 51
4 8 12 8 11 19 6 6 8 6 8 15 27 18 19 25 10 11 35 32 31 32 32 34 35 34 32 31 32 38 43 47 49 49 46 46 48 50 56 61 61 59 55 52
11 6 24 12 12 8 6 13 16 15 8 12 35 38 42 13 15 12 37 39 36 32 29 29 29 30 28 30 32 36 42 48 45 43 45 47 48 47 52 58 59 56 54 54
21 19 10 7 11 18 22 13 16 7 10 27 36 44 49 30 27 38 45 43 37 32 29 28 31 31 32 32 34 40 47 45 45 47 50 53 56 56 57 56 55 55 55 56
9 8 8 11 3 5 39 6 17 27 37 31 37 39 39 42 48 48 44 34 27 22 18 20 28 31 30 36 40 46 47 50 52 55 58 59 59 59 58 56 56 56 58 60
8 6 4 6 2 4 30 13 30 22 27 33 31 33 38 41 44 42 32 28 26 26 27 33 41 36 36 42 47 49 53 57 60 62 62 61 60 59 57 57 58 58 59 61
2 13 10 2 2 5 21 34 37 33 30 33 32 30 35 38 44 39 35 34 29 26 38 48 48 42 45 48 54 55 55 56 58 58 57 57 57 56 57 58 58 59 60 62
13 11 8 6 23 17 21 51 55 46 40 32 29 29 27 29 34 37 38 39 33 34 38 46 58 51 49 55 55 54 54 54 52 51 51 53 54 55 56 59 61 62 64 64
Wind_Direction_850mb
162 208 217 214 214 234 207 217 234 212 171 232 241 251 201 188 187 194 183 166 140 130 131 133 136 131 126 121 120 120 121 122 127 132 138 144 150 145 134 134 108 325 281 307
168 228 231 250 205 205 227 241 245 270 209 234 255 252 243 199 209 198 181 165 155 138 129 127 130 133 133 133 132 130 131 133 139 142 145 148 140 131 120 114 109 118 91 313
214 186 205 183 171 202 230 231 234 253 156 231 275 261 229 199 192 176 175 167 157 149 140 132 128 128 126 125 125 125 126 127 127 124 121 119 120 120 119 117 115 110 109 97
241 190 154 188 211 202 241 218 233 228 237 260 218 281 213 190 188 192 181 177 171 163 151 139 132 128 127 125 124 124 122 122 121 120 123 127 129 131 125 118 108 97 85 78
203 177 194 206 205 189 253 149 210 220 236 265 206 258 204 173 210 198 190 185 180 173 162 152 143 137 131 128 127 127 128 128 129 133 136 136 134 126 118 108 102 89 78 60
261 137 198 205 102 188 135 103 84 107 197 250 226 218 201 200 211 182 188 188 185 179 169 161 152 144 139 138 135 134 133 132 132 136 136 134 125 121 121 111 106 99 80 53
212 216 179 166 140 110 176 159 198 218 206 247 154 213 254 219 180 188 183 185 184 181 177 170 161 154 150 147 145 143 146 147 146 150 145 135 129 121 123 119 112 93 72 50
201 234 188 189 214 190 195 186 192 215 203 185 130 227 236 355 144 139 187 183 178 182 183 179 171 165 162 157 157 158 159 163 159 157 156 144 143 145 140 132 114 93 61 20
195 241 190 193 143 170 185 213 187 106 317 248 207 241 229 166 171 157 172 180 184 187 187 185 180 177 173 170 171 169 174 177 172 170 168 164 161 160 153 139 111 60 13 355
201 250 228 146 130 229 205 152 177 223 214 228 215 248 227 203 198 184 184 188 188 190 191 190 189 186 181 180 181 182 184 189 185 181 179 178 176 172 163 144 64 16 2 343
140 237 143 147 206 190 162 188 210 209 212 224 251 231 211 196 192 187 194 194 189 191 193 193 193 192 190 191 193 193 194 193 193 193 192 192 197 197 206 214 322 337 338 337
193 174 187 204 77 279 239 217 190 203 192 238 301 255 150 170 179 189 191 195 193 193 194 198 198 196 196 199 201 202 200 199 202 203 203 203 207 213 223 252 292 317 328 329
175 199 185 232 223 191 219 208 218 237 64 206 196 234 159 165 206 194 184 192 192 195 196 200 203 204 202 206 206 208 207 207 210 211 210 213 216 227 240 256 275 294 309 317
166 175 214 224 226 158 209 209 205 203 228 212 230 237 190 196 206 188 189 192 194 197 198 202 206 209 209 212 215 214 214 215 217 216 217 220 226 237 248 259 269 279 295 306
183 220 219 238 257 203 207 200 195 209 221 211 244 230 197 194 196 198 195 190 188 196 200 207 212 213 214 217 221 221 222 223 222 221 223 227 233 243 253 262 268 276 286 295
189 229 227 247 221 225 239 217 204 210 219 233 238 242 200 195 185 189 193 188 194 201 206 212 217 218 219 225 231 230 227 227 225 226 227 230 239 249 258 264 270 277 281 285
174 211 183 238 231 184 273 227 215 215 220 220 221 229 145 171 194 202 197 197 203 206 211 213 217 220 221 234 237 234 232 228 228 229 229 235 245 254 261 266 270 272 272 276
171 170 198 120 146 219 286 355 209 214 207 203 137 165 174 186 198 206 203 198 205 211 216 220 210 208 216 221 227 231 230 227 228 230 232 239 249 258 265 268 269 266 267 273
297 177 158 181 208 330 279 219 177 187 224 196 214 145 126 142 157 201 196 199 208 213 216 217 210 213 214 223 229 231 220 219 225 232 237 245 256 263 267 267 266 263 266 274
226 284 221 155 204 218 196 180 178 132 256 201 186 149 152 148 179 203 190 189 184 179 179 187 199 210 218 226 227 224 219 222 230 240 246 255 261 265 267 266 264 264 270 278
167 209 224 199 222 258 221 158 158 157 230 156 177 175 164 190 207 194 178 177 174 177 188 202 213 220 222 218 221 224 228 233 239 243 250 250 256 264 269 267 265 267 273 279
180 173 192 170 217 247 153 117 176 146 138 166 182 194 188 190 165 159 162 169 178 187 194 206 212 209 210 212 220 228 232 239 246 251 254 256 258 259 263 265 266 269 274 279
212 183 174 211 215 8 170 112 178 162 160 176 174 182 185 169 167 170 174 180 189 198 204 224 231 213 217 223 231 238 248 252 255 258 260 260 259 259 264 266 268 272 276 279
233 181 148 177 149 102 193 191 185 179 186 177 174 177 182 189 188 185 185 190 202 212 223 235 221 223 227 232 241 249 257 260 263 262 260 259 257 259 264 266 267 269 272 279
74 149 138 81 196 118 213 210 191 194 183 177 181 189 200 202 200 199 200 212 219 229 232 231 224 234 237 237 243 250 256 259 260 260 258 255 254 259 262 265 268 270 271 274
180 157 180 198 191 172 204 214 208 209 201 192 199 202 205 211 218 229 228 229 242 240 233 231 229 236 242 242 244 252 255 256 256 255 254 255 258 261 262 265 268 269 272 274